Location: Caltech
(34.1382°N, 118.1253°W)
Time: 06:47:01
(UTC-07:00)

Cosmos 1606 - Visible Passes

Search period start: 01 September 2014 00:00
Search period end: 11 September 2014 00:00
Orbit: 521 x 548 km, 82.5° (Epoch: 31 August)

Date Brightness Start Highest point End Pass type
(mag) Time Alt. Az. Time Alt. Az. Time Alt. Az.
01 Sep 5.0 04:39:34 10° SSE 04:42:54 26° E 04:46:14 10° NNE visible
02 Sep 5.0 04:30:28 10° SE 04:33:45 25° E 04:37:02 10° NE visible
03 Sep 5.0 04:21:23 10° SE 04:24:36 24° E 04:27:50 10° NE visible
03 Sep 4.3 05:57:52 10° WSW 06:00:37 18° WNW 06:03:23 10° NNW visible
04 Sep 5.0 04:13:17 15° SE 04:15:27 23° E 04:18:37 10° NE visible
04 Sep 4.3 05:48:44 11° WSW 05:51:27 19° WNW 05:54:17 10° NNW visible
05 Sep 5.0 04:05:04 19° ESE 04:06:18 22° E 04:09:24 10° NE visible
05 Sep 4.2 05:40:31 15° WSW 05:42:16 19° WNW 05:45:10 10° NNW visible
06 Sep 5.0 03:56:47 21° E 03:57:08 21° E 04:00:10 10° NE visible
06 Sep 4.2 05:32:13 19° W 05:33:06 20° WNW 05:36:03 10° NNW visible
07 Sep 5.2 03:48:25 20° E 03:48:25 20° E 03:50:56 10° NE visible
07 Sep 4.1 05:23:51 21° WNW 05:23:54 21° WNW 05:26:56 10° NNW visible
08 Sep 5.5 03:39:58 17° ENE 03:39:58 17° ENE 03:41:41 10° NE visible
08 Sep 4.3 05:15:24 20° WNW 05:15:24 20° WNW 05:17:48 10° NNW visible
09 Sep 5.8 03:31:28 14° NE 03:31:28 14° NE 03:32:25 10° NE visible
09 Sep 4.5 05:06:54 19° NW 05:06:54 19° NW 05:08:39 10° NNW visible
10 Sep 6.1 03:22:55 11° NE 03:22:55 11° NE 03:23:09 10° NE visible
10 Sep 4.8 04:58:20 16° NW 04:58:20 16° NW 04:59:30 10° NNW visible
